Volver al catálogo

STARLINK-31740

ActivoComunicacionesVLEO
NORAD 59433·PAYLOAD·🇺🇸 United States

Lanzado Apr 7, 2024 desde Vandenberg Space Force Base

Loading…

Próximos Pases (próximas 24 horas)

TLE

ActualizadoSource: CelesTrak SupGP

Época: Sep 14, 2026, 13:48 UTC

1 59433C 24065N   26257.57548611  .00044641  00000+0  13183-2 0  2573
2 59433  53.1584 125.1844 0001461 122.5670 343.3622 15.34382803    13

Sigue STARLINK-31740 en tiempo real con AllMySat

Download on the App Store